DW5212 Weather Reports


time (UTC)temp
F
wind
direction
speed
knots
gust
knots
rain 1hr
in
rain 24hr
in
rain mn
in
humidity
%
barometer
mb
20260509042509 67 64 0.0 0.9 0.00 0.13 0.13 94 1011.2
20260509042010 67 64 0.0 1.7 0.00 0.13 0.13 94 1011.2
20260509041510 67 64 0.0 1.7 0.00 0.13 0.13 94 1011.0
20260509041010 67 65 0.9 3.5 0.00 0.13 0.13 94 1010.9
20260509040509 67 99 0.9 3.5 0.00 0.13 0.13 94 1011.0
20260509040011 67 267 1.7 7.0 0.00 0.13 0.13 94 1010.8
20260509035507 67 220 1.7 7.0 0.00 0.13 0.13 94 1010.6
20260509035008 67 106 1.7 4.3 0.00 0.13 0.13 94 1010.5
20260509034508 67 170 1.7 6.1 0.00 0.13 0.13 94 1010.6
20260509033508 67 120 0.9 4.3 0.00 0.13 0.13 94 1010.3
20260509033010 67 74 1.7 6.1 0.00 0.13 0.13 93 1010.2
20260509032509 67 225 1.7 6.1 0.00 0.13 0.13 93 1010.3
20260509032008 67 188 0.9 7.0 0.00 0.13 0.13 93 1010.6
20260509031508 67 250 0.9 4.3 0.00 0.13 0.13 93 1010.7
20260509031009 67 213 0.9 4.3 0.00 0.13 0.13 93 1010.9
20260509030508 67 261 0.9 5.2 0.00 0.13 0.13 93 1010.9
20260509030011 67 251 1.7 6.1 0.00 0.13 0.13 93 1010.7
20260509025008 67 167 0.9 3.5 0.00 0.13 0.13 93 1010.4
20260509023508 67 163 0.0 4.3 0.00 0.13 0.13 93 1010.1
20260509023009 67 184 0.0 0.0 0.00 0.13 0.13 93 1010.1
20260509022508 67 174 0.0 0.0 0.00 0.13 0.13 93 1010.2
20260509022010 67 88 0.0 0.0 0.00 0.13 0.13 92 1010.4
20260509021508 67 88 0.0 0.0 0.00 0.13 0.13 92 1010.6
20260509021009 67 88 0.0 0.0 0.00 0.13 0.13 92 1010.7
20260509020011 67 38 0.0 0.0 0.00 0.13 0.13 92 1010.7
20260509015508 67 38 0.0 0.0 0.00 0.13 0.13 92 1010.8
20260509015009 67 38 0.0 0.0 0.00 0.13 0.13 92 1010.5
20260509014508 67 38 0.0 0.0 0.00 0.13 0.13 92 1010.4
20260509014010 67 38 0.0 0.0 0.00 0.13 0.13 92 1010.4
20260509013508 67 38 0.0 0.0 0.00 0.13 0.13 92 1010.7
20260509013009 67 38 0.0 0.0 0.00 0.13 0.13 92 1011.0
20260509012508 67 38 0.0 0.0 0.00 0.13 0.13 92 1011.0
20260509012011 67 38 0.0 0.0 0.00 0.13 0.13 92 1011.0
20260509011509 67 38 0.0 0.0 0.00 0.13 0.13 92 1011.1
20260509011009 67 38 0.0 0.0 0.00 0.13 0.13 91 1010.8
20260509010509 67 104 0.0 0.0 0.00 0.13 0.13 91 1010.6
20260509010011 67 103 0.0 0.0 0.00 0.13 0.13 91 1010.9
20260509005507 67 103 0.0 0.0 0.00 0.13 0.13 91 1011.2
20260509005008 67 103 0.0 0.0 0.00 0.13 0.13 91 1011.3
20260509004508 67 103 0.0 0.0 0.00 0.13 0.13 91 1011.3
20260509004009 67 103 0.0 0.0 0.00 0.13 0.13 91 1011.1
20260509003508 67 103 0.0 0.0 0.00 0.13 0.13 91 1010.7
20260509003009 67 103 0.0 0.0 0.00 0.13 0.13 91 1010.8
20260509002508 67 103 0.0 0.0 0.00 0.13 0.13 91 1010.7
20260509002009 67 103 0.0 0.0 0.00 0.13 0.13 91 1010.5
20260509001510 67 118 0.0 0.0 0.00 0.13 0.13 90 1010.7
20260509001010 67 118 0.0 0.0 0.00 0.13 0.13 90 1011.0
20260508235508 68 118 0.0 0.0 0.00 0.13 0.13 90 1011.3
20260508234508 68 118 0.0 0.0 0.00 0.13 0.13 90 1011.1
20260508234009 68 117 0.0 0.0 0.00 0.13 0.13 90 1011.2
20260508233009 68 113 0.0 0.0 0.00 0.13 0.13 90 1011.1
20260508232508 68 120 0.0 0.0 0.00 0.13 0.13 90 1011.3
20260508232009 68 121 0.0 0.0 0.00 0.13 0.13 90 1011.1
20260508231009 67 84 0.0 0.0 0.00 0.13 0.13 90 1010.9
20260508230012 67 164 0.0 0.0 0.00 0.13 0.13 89 1011.1
20260508225508 68 163 0.0 0.0 0.00 0.13 0.13 89 1011.3
20260508225009 68 164 0.0 0.0 0.00 0.13 0.13 89 1011.3
20260508224508 68 163 0.0 0.0 0.00 0.13 0.13 89 1011.3
20260508224008 67 164 0.0 1.7 0.00 0.13 0.13 89 1011.3
20260508223507 68 163 0.0 1.7 0.00 0.13 0.13 88 1011.3
20260508223008 68 247 0.9 2.6 0.00 0.13 0.13 88 1011.2
20260508222507 68 261 0.0 2.6 0.00 0.13 0.13 88 1011.2
20260508222008 67 142 0.0 0.0 0.00 0.13 0.13 88 1011.1
20260508221508 67 142 0.0 0.0 0.00 0.13 0.13 88 1010.9
20260508221010 68 167 0.0 1.7 0.00 0.13 0.13 88 1011.3
20260508220507 68 168 0.0 1.7 0.00 0.13 0.13 88 1011.0
20260508220012 68 163 0.0 1.7 0.00 0.13 0.13 88 1011.0
20260508214510 68 148 0.9 2.6 0.00 0.13 0.13 87 1011.3
20260508214010 68 243 0.9 5.2 0.00 0.13 0.13 87 1011.4
20260508213508 68 164 0.9 5.2 0.00 0.13 0.13 86 1011.5
20260508211509 68 203 0.9 3.5 0.00 0.13 0.13 86 1011.8
20260508211009 68 240 0.9 3.5 0.00 0.13 0.13 86 1011.8
20260508210507 68 94 0.9 3.5 0.00 0.13 0.13 86 1011.8
20260508210011 68 183 0.9 3.5 0.00 0.13 0.13 87 1011.6
20260508205507 68 107 0.9 1.7 0.00 0.13 0.13 87 1011.8
20260508205008 68 108 0.9 2.6 0.00 0.13 0.13 87 1011.7
20260508204509 67 153 0.0 2.6 0.00 0.13 0.13 88 1011.7
20260508204009 67 219 0.0 0.0 0.00 0.13 0.13 87 1011.7
20260508203508 67 73 0.0 0.0 0.00 0.13 0.13 87 1011.7
20260508203016 67 121 0.0 1.7 0.00 0.13 0.13 87 1012.0
20260508202508 67 122 0.9 5.2 0.00 0.13 0.13 87 1011.9
20260508202008 67 133 0.9 2.6 0.00 0.13 0.13 87 1012.0
20260508201509 67 200 0.9 2.6 0.00 0.13 0.13 87 1012.2
20260508201008 67 191 0.9 3.5 0.00 0.13 0.13 86 1012.0
20260508200010 67 148 0.9 3.5 0.00 0.13 0.13 86 1012.2
20260508195507 67 107 0.9 3.5 0.00 0.13 0.13 86 1012.2
20260508194507 68 84 0.9 3.5 0.00 0.13 0.13 86 1012.3
20260508194009 69 163 0.9 2.6 0.00 0.13 0.13 85 1012.4
20260508193506 69 97 1.7 7.0 0.00 0.13 0.13 85 1012.4
20260508193010 70 114 1.7 7.0 0.00 0.13 0.13 85 1012.4
20260508192507 70 92 1.7 3.5 0.00 0.13 0.13 86 1012.3
20260508192009 70 99 0.9 2.6 0.00 0.13 0.13 87 1012.2
20260508191508 70 102 1.7 5.2 0.00 0.13 0.13 86 1012.4
20260508191008 70 157 1.7 7.8 0.00 0.13 0.13 86 1012.5
20260508190509 69 156 0.9 7.8 0.00 0.13 0.13 87 1012.6
20260508190011 69 209 0.9 6.1 0.00 0.13 0.13 88 1012.6
20260508185508 69 66 1.7 6.1 0.00 0.13 0.13 88 1012.5
20260508185010 68 80 0.9 3.5 0.00 0.13 0.13 89 1012.7
20260508184509 68 109 0.9 2.6 0.00 0.13 0.13 90 1013.0
20260508184009 67 92 0.9 3.5 0.00 0.13 0.13 90 1012.8
20260508183506 67 94 0.9 3.5 0.00 0.13 0.13 90 1012.9
20260508182506 67 148 0.0 2.6 0.00 0.13 0.13 90 1012.9
20260508182009 67 29 0.0 0.0 0.00 0.13 0.13 91 1013.2
20260508181507 66 36 0.0 0.9 0.00 0.13 0.13 91 1012.8
20260508181008 66 32 0.9 1.7 0.00 0.13 0.13 90 1012.6
20260508180508 66 30 0.9 3.5 0.00 0.13 0.13 89 1012.9
20260508180009 67 133 0.9 3.5 0.00 0.13 0.13 90 1013.6
20260508175507 67 97 0.9 3.5 0.00 0.13 0.13 90 1013.5
20260508175008 67 91 0.9 3.5 0.00 0.13 0.13 90 1013.5
20260508174507 67 135 0.9 4.3 0.00 0.13 0.13 91 1013.7
20260508174010 66 136 0.9 2.6 0.00 0.13 0.13 92 1013.7
20260508173010 65 110 0.9 2.6 0.00 0.13 0.13 93 1013.2
20260508172009 63 20 0.9 3.5 0.00 0.13 0.13 94 1013.3
20260508171507 63 84 0.9 3.5 0.01 0.13 0.13 93 1013.1
20260508170506 62 19 0.9 3.5 0.03 0.13 0.13 94 1013.8
20260508170007 62 34 0.9 1.7 0.03 0.13 0.13 94 1014.0
20260508165505 61 19 0.9 2.6 0.04 0.13 0.13 94 1014.1
20260508165007 61 30 1.7 3.5 0.06 0.13 0.13 94 1013.6
20260508164507 61 32 0.9 4.3 0.07 0.13 0.13 94 1013.5
20260508163507 60 5 0.0 0.0 0.09 0.13 0.13 94 1013.7
20260508163008 60 5 0.0 0.0 0.13 0.13 0.13 94 1013.8
20260508162505 60 5 0.9 2.6 0.13 0.13 0.13 93 1013.8
20260508162008 60 5 0.9 3.5 0.13 0.13 0.13 93 1013.6
20260508161507 60 19 0.9 3.5 0.12 0.12 0.12 93 1014.3
20260508160506 60 29 0.0 0.0 0.10 0.10 0.10 92 1015.2
20260508155008 60 52 0.9 2.6 0.07 0.07 0.07 91 1015.1
20260508154507 60 22 0.9 2.6 0.06 0.06 0.06 91 1015.4
20260508154007 60 177 0.9 2.6 0.05 0.05 0.05 90 1015.6
20260508153506 60 205 0.9 2.6 0.04 0.04 0.04 90 1016.3
20260508153008 60 221 0.9 2.6 0.00 0.00 0.00 89 1016.1
20260508152506 61 219 0.9 2.6 0.00 0.00 0.00 89 1016.4
20260508152007 61 157 0.9 2.6 0.00 0.00 0.00 88 1015.6
20260508151506 61 157 0.9 3.5 0.00 0.00 0.00 88 1015.7
20260508151007 61 67 0.0 3.5 0.00 0.00 0.00 87 1015.6
20260508150505 61 43 0.0 3.5 0.00 0.00 0.00 87 1015.5
20260508150009 61 156 0.0 0.0 0.00 0.00 0.00 87 1015.4
20260508145507 61 103 0.0 0.0 0.00 0.00 0.00 87 1015.6
20260508145006 61 27 0.0 0.0 0.00 0.00 0.00 87 1015.9
20260508144506 61 27 0.0 0.0 0.00 0.00 0.00 88 1015.8
20260508144008 61 28 0.0 0.9 0.00 0.00 0.00 87 1015.9
20260508143506 61 54 0.0 0.9 0.00 0.00 0.00 88 1016.0
20260508142505 61 55 0.0 1.7 0.00 0.00 0.00 87 1015.7
20260508142007 61 55 0.0 1.7 0.00 0.00 0.00 87 1015.8
20260508141506 62 146 0.0 0.0 0.00 0.00 0.00 87 1015.7
20260508141006 62 146 0.0 0.0 0.00 0.00 0.00 88 1016.0
20260508140507 62 146 0.0 0.9 0.00 0.00 0.00 88 1016.1
20260508140010 62 146 0.9 1.7 0.00 0.00 0.00 87 1015.6
20260508135508 62 146 0.0 1.7 0.00 0.00 0.00 87 1015.3
20260508135008 62 146 0.0 0.9 0.00 0.00 0.00 87 1015.5
20260508134508 62 146 0.0 1.7 0.00 0.00 0.00 87 1015.2
20260508134009 62 146 0.0 1.7 0.00 0.00 0.00 88 1015.3
20260508133507 62 117 0.0 0.0 0.00 0.00 0.00 89 1015.2
20260508133010 61 138 0.0 0.0 0.00 0.00 0.00 89 1014.9
20260508132508 61 138 0.0 0.0 0.00 0.00 0.00 89 1015.2
20260508132009 61 138 0.0 0.0 0.00 0.00 0.00 90 1015.2
20260508131510 61 146 0.0 0.0 0.00 0.00 0.00 90 1015.0
20260508131010 61 207 0.0 0.0 0.00 0.00 0.00 90 1015.4
20260508130022 61 176 0.0 0.0 0.00 0.00 0.00 90 1015.5
20260508125507 61 32 0.0 0.0 0.00 0.00 0.00 90 1014.9
20260508125007 60 24 0.0 1.7 0.00 0.00 0.00 91 1014.8
20260508124507 60 161 0.9 1.7 0.00 0.00 0.00 91 1014.7
20260508124007 60 180 0.9 2.6 0.00 0.00 0.00 91 1014.6
20260508123008 60 76 0.0 0.0 0.00 0.00 0.00 91 1014.8
20260508122507 60 48 0.0 0.0 0.00 0.00 0.00 91 1013.8
20260508122009 60 48 0.0 0.0 0.00 0.00 0.00 92 1014.0
20260508121508 60 48 0.0 0.0 0.00 0.00 0.00 92 1014.0
20260508121007 60 52 0.0 0.0 0.00 0.00 0.00 92 1014.0
20260508120507 60 33 0.0 0.0 0.00 0.00 0.00 92 1014.2
20260508115505 60 33 0.0 0.0 0.00 0.00 0.00 93 1014.1
20260508115007 60 33 0.0 0.0 0.00 0.00 0.00 93 1014.0
20260508114008 60 52 0.0 0.0 0.00 0.00 0.00 94 1014.3
20260508113506 60 32 0.0 0.0 0.00 0.00 0.00 94 1014.6
20260508113007 60 32 0.0 0.0 0.00 0.00 0.00 94 1015.1
20260508112506 60 32 0.0 0.0 0.00 0.00 0.00 94 1015.2
20260508111507 60 44 0.0 1.7 0.00 0.00 0.00 94 1014.9
20260508110505 60 64 0.0 0.0 0.00 0.00 0.00 94 1014.8
20260508110009 59 64 0.0 0.0 0.00 0.00 0.00 94 1014.6
20260508105506 59 64 0.0 0.0 0.00 0.00 0.00 94 1014.8
20260508105006 59 65 0.0 0.0 0.00 0.00 0.00 94 1014.8
20260508104506 59 64 0.0 0.0 0.00 0.00 0.00 93 1014.8
20260508104006 59 65 0.0 0.0 0.00 0.00 0.00 93 1014.7
20260508103506 59 65 0.0 0.0 0.00 0.00 0.00 93 1014.6
20260508103008 60 65 0.0 0.0 0.00 0.00 0.00 93 1014.6
20260508102506 60 64 0.0 0.0 0.00 0.00 0.00 93 1014.6
20260508102006 60 64 0.0 0.0 0.00 0.00 0.00 93 1014.7
20260508100505 60 65 0.0 0.0 0.00 0.00 0.00 93 1014.8
20260508100008 60 64 0.0 0.0 0.00 0.00 0.00 93 1014.8
20260508095506 60 65 0.0 0.0 0.00 0.00 0.00 93 1014.9
20260508095008 60 64 0.0 0.0 0.00 0.00 0.00 93 1015.0
20260508094506 60 64 0.0 0.0 0.00 0.00 0.00 93 1014.8
20260508094007 60 64 0.0 0.0 0.00 0.00 0.00 93 1014.6
20260508093506 60 65 0.0 0.0 0.00 0.00 0.00 93 1014.3
20260508093007 60 65 0.0 0.0 0.00 0.00 0.00 93 1014.4
20260508092506 60 64 0.0 0.0 0.00 0.00 0.00 93 1014.6
20260508092007 60 65 0.0 0.0 0.00 0.00 0.00 93 1014.6
20260508090507 60 64 0.0 0.0 0.00 0.00 0.00 92 1014.9
20260508090010 60 65 0.0 0.0 0.00 0.00 0.00 93 1014.7
20260508085507 60 65 0.0 0.0 0.00 0.00 0.00 93 1014.5
20260508085007 60 65 0.0 0.0 0.00 0.00 0.00 93 1014.7
20260508084507 60 65 0.0 0.0 0.00 0.00 0.00 93 1014.8
20260508084008 60 64 0.0 0.0 0.00 0.00 0.00 93 1014.7
20260508083508 60 65 0.0 0.0 0.00 0.00 0.00 93 1014.8
20260508082507 60 65 0.0 0.0 0.00 0.00 0.00 93 1014.4
20260508082007 60 64 0.0 0.0 0.00 0.00 0.00 92 1014.6
20260508081506 60 64 0.0 0.0 0.00 0.00 0.00 92 1014.7
20260508081008 60 64 0.0 0.0 0.00 0.00 0.00 92 1014.5
20260508080009 60 65 0.0 0.0 0.00 0.00 0.00 92 1014.7
20260508074508 60 65 0.0 0.0 0.00 0.00 0.00 92 1014.8
20260508074007 60 64 0.0 0.0 0.00 0.00 0.00 92 1014.7
20260508073506 60 64 0.0 0.0 0.00 0.00 0.00 92 1014.6
20260508073010 60 64 0.0 0.0 0.00 0.00 0.00 92 1014.3
20260508072507 60 65 0.0 0.0 0.00 0.00 0.00 92 1014.6
20260508072007 60 65 0.0 0.0 0.00 0.00 0.00 92 1014.8
20260508071507 60 65 0.0 0.0 0.00 0.00 0.00 92 1014.6
20260508071008 60 65 0.0 0.0 0.00 0.00 0.00 92 1014.8
20260508070008 61 64 0.0 0.0 0.00 0.00 0.00 92 1014.9
20260508065507 61 65 0.0 0.0 0.00 0.00 0.00 92 1014.8
20260508065007 61 65 0.0 0.0 0.00 0.00 0.00 92 1014.9
20260508064008 61 65 0.0 0.0 0.00 0.00 0.00 91 1014.5
20260508063506 61 64 0.0 0.0 0.00 0.00 0.00 91 1014.9
20260508063009 61 64 0.0 0.0 0.00 0.00 0.00 91 1015.1
20260508062506 61 64 0.0 0.0 0.00 0.00 0.00 91 1015.4
20260508061507 61 65 0.0 0.0 0.00 0.00 0.00 91 1015.5
20260508061006 61 64 0.0 0.0 0.00 0.00 0.00 91 1015.3
20260508060011 61 64 0.0 0.0 0.00 0.00 0.00 91 1015.1
20260508055507 61 65 0.0 0.0 0.00 0.00 0.00 91 1015.3
20260508055009 62 64 0.0 0.0 0.00 0.00 0.00 91 1015.3
20260508054508 62 65 0.0 0.0 0.00 0.00 0.00 91 1015.7
20260508054009 62 64 0.0 0.0 0.00 0.00 0.00 91 1015.6
20260508053010 62 64 0.0 0.0 0.00 0.00 0.00 91 1014.9
20260508052507 62 65 0.0 0.0 0.00 0.00 0.00 91 1015.1
20260508052008 62 65 0.0 0.0 0.00 0.00 0.00 91 1015.2
20260508051508 62 65 0.0 0.0 0.00 0.00 0.00 91 1015.3
20260508051008 62 51 0.0 0.0 0.00 0.00 0.00 91 1015.3
20260508050509 62 51 0.0 0.0 0.00 0.00 0.00 91 1015.1
20260508045509 62 51 0.0 0.0 0.00 0.00 0.00 90 1015.0
20260508044508 62 47 0.0 0.0 0.00 0.00 0.00 90 1015.9
20260508044010 62 47 0.0 0.0 0.00 0.00 0.00 90 1015.7
20260508043508 62 47 0.0 0.0 0.00 0.00 0.00 90 1015.4